Location: Unspecified
(0.0000°N, 0.0000°E)
Time: 02:30:24
(UTC+00:00)

PACE - Visible Passes

Search period start: 16 May 2026 00:00
Search period end: 26 May 2026 00:00
Orbit: 531 x 538 km, 98.1° (Epoch: 14 May)

Date Brightness Start Highest point End Pass type
(mag) Time Alt. Az. Time Alt. Az. Time Alt. Az.
17 May ? 05:27:09 10° NNE 05:30:59 61° ESE 05:34:49 10° S visible
18 May ? 05:18:18 10° NNE 05:21:58 42° ESE 05:25:39 10° S visible
19 May ? 05:09:33 10° NE 05:12:57 30° ESE 05:16:23 10° SSE visible
20 May ? 05:00:57 10° NE 05:03:57 22° ESE 05:06:57 10° SSE visible
20 May ? 18:31:39 10° SW 18:33:34 13° WSW 18:35:29 10° WNW visible
21 May ? 04:52:34 10° ENE 04:54:56 16° ESE 04:57:18 10° SE visible
21 May ? 18:21:50 10° SSW 18:24:33 19° WSW 18:27:15 10° WNW visible
22 May ? 04:44:41 10° E 04:45:55 11° ESE 04:47:08 10° ESE visible
